QPF
0.00 0.00 0.00 0.01 0.01 0.01 0.02 0.02 0.01 0.01 0.02 0.02 0.02 0.02 0.02 0.03 0.03 0.03 0.03 0.03 0.02 0.01 0.01 0.01 0.02 0.02 0.02 0.02 0.02 0.03 0.02 0.03 0.04 0.04 0.03 0.03 0.02 0.03 0.04 0.05 0.06 0.04 0.07
0.00 0.00 0.00 0.01 0.01 0.01 0.02 0.02 0.02 0.02 0.03 0.03 0.03 0.02 0.03 0.03 0.03 0.03 0.03 0.02 0.02 0.01 0.01 0.01 0.02 0.02 0.02 0.02 0.03 0.03 0.03 0.03 0.03 0.05 0.04 0.04 0.03 0.04 0.04 0.05 0.06 0.04 0.07
0.00 0.00 0.01 0.01 0.01 0.01 0.01 0.02 0.02 0.03 0.03 0.04 0.03 0.04 0.04 0.03 0.03 0.03 0.02 0.02 0.02 0.01 0.02 0.02 0.02 0.02 0.02 0.03 0.03 0.03 0.04 0.03 0.03 0.04 0.05 0.04 0.04 0.04 0.05 0.06 0.06 0.05 0.06
0.01 0.01 0.01 0.01 0.01 0.01 0.02 0.03 0.03 0.03 0.03 0.03 0.03 0.03 0.03 0.04 0.04 0.03 0.02 0.03 0.02 0.02 0.03 0.02 0.02 0.02 0.02 0.02 0.03 0.04 0.04 0.04 0.04 0.04 0.05 0.05 0.04 0.04 0.04 0.05 0.06 0.05 0.06
0.01 0.01 0.01 0.01 0.01 0.02 0.02 0.03 0.03 0.03 0.03 0.03 0.03 0.03 0.04 0.04 0.04 0.03 0.03 0.03 0.02 0.02 0.02 0.02 0.01 0.02 0.02 0.02 0.03 0.03 0.04 0.05 0.05 0.05 0.05 0.05 0.04 0.04 0.03 0.03 0.04 0.05 0.05
0.01 0.01 0.01 0.01 0.01 0.01 0.02 0.02 0.02 0.02 0.02 0.02 0.02 0.03 0.02 0.03 0.03 0.03 0.03 0.03 0.02 0.02 0.01 0.01 0.01 0.02 0.02 0.02 0.02 0.03 0.04 0.06 0.06 0.06 0.05 0.05 0.04 0.03 0.02 0.02 0.02 0.03 0.05
0.01 0.01 0.01 0.01 0.01 0.01 0.01 0.01 0.01 0.01 0.01 0.02 0.02 0.02 0.02 0.03 0.04 0.04 0.03 0.02 0.02 0.01 0.01 0.01 0.01 0.01 0.02 0.02 0.02 0.03 0.04 0.07 0.08 0.07 0.06 0.05 0.04 0.02 0.02 0.02 0.02 0.03 0.04
0.01 0.01 0.01 0.01 0.01 0.01 0.01 0.01 0.01 0.01 0.01 0.01 0.01 0.01 0.02 0.03 0.04 0.04 0.03 0.02 0.01 0.01 0.01 0.02 0.02 0.01 0.01 0.01 0.01 0.02 0.03 0.04 0.06 0.07 0.06 0.05 0.04 0.03 0.02 0.02 0.02 0.02 0.03
0.01 0.01 0.01 0.01 0.01 0.01 0.01 0.01 0.01 0.01 0.01 0.01 0.01 0.01 0.02 0.02 0.02 0.03 0.03 0.02 0.01 0.02 0.02 0.02 0.01 0.01 0.01 0.02 0.02 0.02 0.03 0.04 0.04 0.05 0.06 0.05 0.04 0.03 0.02 0.02 0.02 0.02 0.03
0.01 0.01 0.01 0.01 0.01 0.01 0.01 0.01 0.02 0.02 0.01 0.01 0.01 0.01 0.02 0.01 0.02 0.03 0.03 0.02 0.02 0.02 0.02 0.02 0.01 0.01 0.01 0.02 0.02 0.02 0.02 0.03 0.04 0.05 0.05 0.05 0.04 0.03 0.02 0.02 0.02 0.02 0.02
0.01 0.01 0.01 0.01 0.01 0.01 0.01 0.01 0.01 0.01 0.01 0.01 0.01 0.02 0.01 0.02 0.02 0.02 0.03 0.03 0.02 0.02 0.02 0.02 0.01 0.02 0.02 0.02 0.02 0.01 0.02 0.02 0.03 0.04 0.05 0.05 0.05 0.04 0.02 0.02 0.02 0.01 0.02
0.01 0.01 0.01 0.01 0.01 0.01 0.01 0.01 0.01 0.01 0.01 0.01 0.01 0.02 0.02 0.02 0.02 0.02 0.03 0.03 0.03 0.03 0.03 0.02 0.02 0.02 0.02 0.02 0.02 0.02 0.02 0.02 0.02 0.03 0.05 0.05 0.04 0.04 0.03 0.02 0.02 0.02 0.01
0.01 0.01 0.01 0.01 0.01 0.01 0.01 0.02 0.02 0.02 0.01 0.01 0.01 0.01 0.02 0.02 0.02 0.03 0.03 0.03 0.03 0.03 0.03 0.03 0.02 0.02 0.02 0.02 0.02 0.02 0.02 0.02 0.02 0.02 0.03 0.04 0.04 0.03 0.03 0.02 0.02 0.02 0.02
0.01 0.01 0.01 0.01 0.01 0.01 0.01 0.01 0.02 0.02 0.02 0.02 0.02 0.01 0.02 0.02 0.02 0.03 0.03 0.03 0.03 0.03 0.03 0.03 0.02 0.02 0.03 0.03 0.02 0.02 0.02 0.02 0.02 0.02 0.03 0.03 0.02 0.02 0.02 0.02 0.02 0.02 0.02
0.01 0.01 0.01 0.01 0.01 0.01 0.01 0.01 0.01 0.01 0.02 0.03 0.03 0.03 0.02 0.02 0.03 0.04 0.03 0.03 0.04 0.04 0.03 0.03 0.02 0.02 0.02 0.03 0.03 0.03 0.03 0.03 0.02 0.03 0.03 0.02 0.02 0.02 0.02 0.02 0.02 0.02 0.02
0.01 0.01 0.01 0.01 0.01 0.01 0.01 0.01 0.01 0.01 0.01 0.01 0.02 0.03 0.02 0.03 0.04 0.04 0.04 0.03 0.03 0.03 0.04 0.04 0.03 0.02 0.02 0.03 0.03 0.03 0.04 0.04 0.03 0.03 0.03 0.02 0.01 0.01 0.02 0.01 0.01 0.01 0.02
0.02 0.02 0.02 0.01 0.01 0.01 0.01 0.01 0.01 0.01 0.01 0.01 0.01 0.02 0.02 0.03 0.03 0.03 0.04 0.04 0.04 0.03 0.04 0.05 0.05 0.04 0.02 0.02 0.03 0.04 0.04 0.04 0.04 0.03 0.03 0.02 0.01 0.01 0.01 0.01 0.01 0.01 0.01
0.02 0.02 0.02 0.02 0.02 0.02 0.02 0.01 0.01 0.01 0.02 0.02 0.02 0.02 0.02 0.03 0.03 0.03 0.03 0.03 0.04 0.04 0.04 0.03 0.03 0.05 0.03 0.02 0.02 0.03 0.04 0.04 0.04 0.04 0.04 0.03 0.02 0.01 0.01 0.01 0.01 0.01 0.01
0.02 0.02 0.02 0.02 0.02 0.02 0.02 0.01 0.01 0.01 0.01 0.02 0.02 0.02 0.02 0.02 0.03 0.03 0.03 0.03 0.04 0.04 0.05 0.05 0.04 0.04 0.03 0.03 0.03 0.02 0.02 0.03 0.03 0.03 0.03 0.03 0.02 0.01 0.01 0.01 0.01 0.01 0.01
0.02 0.02 0.02 0.02 0.02 0.02 0.02 0.02 0.01 0.01 0.01 0.02 0.02 0.02 0.02 0.02 0.03 0.03 0.03 0.03 0.03 0.03 0.04 0.04 0.03 0.03 0.02 0.02 0.02 0.02 0.01 0.01 0.02 0.02 0.02 0.02 0.01 0.01 0.01 0.01 0.01 0.01 0.01
0.02 0.02 0.02 0.02 0.02 0.02 0.02 0.02 0.02 0.02 0.02 0.02 0.02 0.02 0.02 0.02 0.02 0.02 0.02 0.02 0.02 0.02 0.03 0.03 0.02 0.02 0.02 0.01 0.01 0.01 0.01 0.01 0.01 0.01 0.01 0.01 0.01 0.01 0.01 0.01 0.01 0.01 0.01
0.01 0.01 0.02 0.02 0.02 0.02 0.02 0.01 0.02 0.02 0.02 0.02 0.02 0.02 0.02 0.02 0.02 0.02 0.02 0.02 0.01 0.01 0.02 0.02 0.02 0.01 0.01 0.01 0.01 0.01 0.01 0.00 0.01 0.01 0.01 0.01 0.01 0.01 0.01 0.01 0.01 0.01 0.01
0.01 0.01 0.01 0.01 0.01 0.01 0.01 0.01 0.02 0.02 0.02 0.02 0.02 0.02 0.02 0.02 0.02 0.02 0.02 0.02 0.02 0.02 0.02 0.02 0.02 0.01 0.01 0.01 0.01 0.01 0.01 0.01 0.01 0.01 0.01 0.01 0.01 0.01 0.01 0.01 0.01 0.01 0.01
0.01 0.01 0.01 0.01 0.01 0.01 0.01 0.01 0.02 0.02 0.01 0.02 0.01 0.01 0.02 0.02 0.02 0.02 0.02 0.02 0.02 0.01 0.01 0.02 0.01 0.01 0.01 0.01 0.01 0.01 0.01 0.01 0.01 0.01 0.01 0.01 0.01 0.01 0.01 0.01 0.01 0.01 0.01
0.01 0.01 0.01 0.01 0.01 0.01 0.01 0.01 0.02 0.02 0.02 0.01 0.01 0.01 0.02 0.02 0.02 0.02 0.02 0.02 0.01 0.01 0.01 0.01 0.01 0.01 0.01 0.01 0.01 0.01 0.01 0.01 0.01 0.01 0.01 0.01 0.01 0.01 0.01 0.01 0.01 0.01 0.01
0.01 0.01 0.01 0.01 0.01 0.01 0.02 0.01 0.01 0.02 0.02 0.02 0.01 0.01 0.01 0.01 0.02 0.01 0.01 0.01 0.01 0.01 0.01 0.01 0.01 0.01 0.01 0.01 0.01 0.01 0.01 0.01 0.01 0.01 0.01 0.01 0.01 0.01 0.01 0.01 0.01 0.01 0.01
MSLP
1030.81 1030.84 1030.81 1030.69 1030.44 1030.08 1029.61 1029.05 1028.42 1027.73 1026.98 1026.18 1025.30 1024.36 1023.36 1022.33 1021.30 1020.31 1019.40 1018.59 1017.89 1017.26 1016.67 1016.05 1015.32 1014.42 1013.31 1011.97 1010.44 1008.78 1007.07 1005.42 1003.93 1002.67 1001.70 1001.05 1000.70 1000.60 1000.72 1000.99 1001.36 1001.82 1002.33
1030.56 1030.60 1030.56 1030.43 1030.18 1029.83 1029.38 1028.86 1028.26 1027.61 1026.90 1026.11 1025.26 1024.32 1023.32 1022.28 1021.24 1020.23 1019.30 1018.48 1017.77 1017.15 1016.56 1015.95 1015.23 1014.34 1013.23 1011.89 1010.34 1008.66 1006.92 1005.24 1003.72 1002.44 1001.48 1000.85 1000.55 1000.53 1000.75 1001.13 1001.62 1002.18 1002.77
1030.32 1030.35 1030.31 1030.16 1029.92 1029.57 1029.14 1028.64 1028.08 1027.46 1026.79 1026.04 1025.21 1024.30 1023.32 1022.29 1021.25 1020.24 1019.31 1018.49 1017.78 1017.16 1016.58 1015.97 1015.26 1014.39 1013.29 1011.97 1010.43 1008.75 1007.02 1005.34 1003.81 1002.53 1001.58 1000.97 1000.71 1000.75 1001.05 1001.53 1002.12 1002.78 1003.44
1030.08 1030.11 1030.05 1029.89 1029.64 1029.30 1028.88 1028.40 1027.87 1027.30 1026.66 1025.96 1025.17 1024.29 1023.34 1022.34 1021.32 1020.33 1019.41 1018.60 1017.90 1017.28 1016.71 1016.12 1015.44 1014.59 1013.53 1012.25 1010.76 1009.12 1007.42 1005.77 1004.26 1002.99 1002.05 1001.46 1001.22 1001.30 1001.65 1002.19 1002.85 1003.58 1004.30
1029.84 1029.85 1029.78 1029.61 1029.35 1029.00 1028.59 1028.14 1027.64 1027.10 1026.51 1025.86 1025.11 1024.28 1023.37 1022.41 1021.42 1020.46 1019.57 1018.78 1018.09 1017.49 1016.94 1016.38 1015.73 1014.93 1013.94 1012.73 1011.31 1009.75 1008.13 1006.53 1005.07 1003.84 1002.91 1002.33 1002.09 1002.17 1002.53 1003.10 1003.80 1004.56 1005.32
1029.58 1029.59 1029.50 1029.31 1029.04 1028.69 1028.29 1027.86 1027.40 1026.90 1026.35 1025.74 1025.05 1024.27 1023.40 1022.48 1021.54 1020.62 1019.75 1018.98 1018.32 1017.74 1017.22 1016.69 1016.09 1015.36 1014.46 1013.35 1012.05 1010.61 1009.09 1007.60 1006.22 1005.03 1004.13 1003.55 1003.30 1003.36 1003.70 1004.24 1004.93 1005.68 1006.45
1029.32 1029.31 1029.20 1028.99 1028.70 1028.36 1027.97 1027.56 1027.14 1026.68 1026.18 1025.62 1024.98 1024.24 1023.43 1022.55 1021.65 1020.75 1019.92 1019.17 1018.52 1017.97 1017.47 1016.99 1016.45 1015.81 1015.01 1014.04 1012.89 1011.60 1010.24 1008.88 1007.61 1006.51 1005.65 1005.08 1004.81 1004.82 1005.10 1005.59 1006.22 1006.93 1007.67
1029.04 1029.02 1028.88 1028.66 1028.36 1028.01 1027.64 1027.26 1026.87 1026.46 1026.01 1025.49 1024.90 1024.21 1023.43 1022.59 1021.72 1020.86 1020.04 1019.31 1018.68 1018.14 1017.67 1017.23 1016.76 1016.21 1015.54 1014.72 1013.75 1012.66 1011.49 1010.30 1009.18 1008.19 1007.39 1006.84 1006.55 1006.51 1006.72 1007.11 1007.66 1008.29 1008.96
1028.75 1028.71 1028.55 1028.31 1028.00 1027.66 1027.31 1026.96 1026.60 1026.23 1025.82 1025.35 1024.79 1024.14 1023.40 1022.60 1021.75 1020.91 1020.11 1019.38 1018.76 1018.24 1017.79 1017.39 1017.00 1016.55 1016.02 1015.37 1014.59 1013.71 1012.75 1011.77 1010.82 1009.97 1009.27 1008.75 1008.45 1008.36 1008.47 1008.76 1009.19 1009.71 1010.28
1028.45 1028.38 1028.20 1027.95 1027.64 1027.31 1026.98 1026.66 1026.33 1025.99 1025.61 1025.18 1024.65 1024.03 1023.33 1022.54 1021.72 1020.90 1020.12 1019.41 1018.79 1018.28 1017.86 1017.51 1017.18 1016.84 1016.44 1015.96 1015.38 1014.72 1013.99 1013.23 1012.47 1011.78 1011.18 1010.72 1010.41 1010.27 1010.29 1010.47 1010.77 1011.16 1011.62
1028.14 1028.04 1027.85 1027.59 1027.28 1026.96 1026.65 1026.34 1026.04 1025.73 1025.37 1024.96 1024.46 1023.86 1023.18 1022.43 1021.63 1020.84 1020.08 1019.39 1018.79 1018.31 1017.92 1017.61 1017.35 1017.10 1016.84 1016.52 1016.14 1015.69 1015.18 1014.63 1014.07 1013.53 1013.05 1012.65 1012.35 1012.17 1012.11 1012.17 1012.34 1012.60 1012.94
1027.81 1027.70 1027.50 1027.23 1026.93 1026.62 1026.32 1026.03 1025.74 1025.43 1025.09 1024.68 1024.19 1023.62 1022.96 1022.23 1021.48 1020.72 1020.00 1019.35 1018.79 1018.35 1018.00 1017.75 1017.56 1017.40 1017.25 1017.08 1016.87 1016.60 1016.29 1015.94 1015.56 1015.17 1014.80 1014.47 1014.19 1013.98 1013.85 1013.81 1013.86 1013.99 1014.21
1027.48 1027.36 1027.15 1026.89 1026.59 1026.29 1026.00 1025.71 1025.41 1025.10 1024.75 1024.34 1023.85 1023.29 1022.65 1021.96 1021.25 1020.55 1019.89 1019.30 1018.81 1018.42 1018.14 1017.95 1017.83 1017.76 1017.71 1017.66 1017.58 1017.47 1017.32 1017.13 1016.90 1016.65 1016.38 1016.11 1015.86 1015.63 1015.45 1015.32 1015.27 1015.30 1015.41
1027.16 1027.03 1026.82 1026.57 1026.28 1025.98 1025.69 1025.39 1025.08 1024.74 1024.37 1023.94 1023.44 1022.88 1022.27 1021.62 1020.97 1020.34 1019.76 1019.25 1018.85 1018.54 1018.33 1018.21 1018.17 1018.17 1018.20 1018.24 1018.26 1018.27 1018.24 1018.17 1018.06 1017.92 1017.73 1017.53 1017.30 1017.07 1016.86 1016.69 1016.56 1016.51 1016.54
1026.86 1026.72 1026.52 1026.27 1026.00 1025.70 1025.40 1025.09 1024.75 1024.38 1023.97 1023.51 1022.99 1022.42 1021.83 1021.22 1020.63 1020.08 1019.60 1019.19 1018.89 1018.68 1018.56 1018.51 1018.53 1018.60 1018.69 1018.79 1018.89 1018.96 1019.02 1019.03 1019.01 1018.94 1018.84 1018.68 1018.50 1018.29 1018.08 1017.88 1017.72 1017.63 1017.61
1026.58 1026.44 1026.25 1026.02 1025.75 1025.46 1025.15 1024.82 1024.45 1024.04 1023.58 1023.07 1022.52 1021.95 1021.36 1020.79 1020.27 1019.80 1019.41 1019.11 1018.91 1018.80 1018.77 1018.80 1018.88 1018.99 1019.13 1019.26 1019.40 1019.52 1019.62 1019.69 1019.73 1019.72 1019.68 1019.59 1019.46 1019.29 1019.11 1018.93 1018.78 1018.67 1018.63
1026.34 1026.20 1026.02 1025.80 1025.55 1025.27 1024.96 1024.60 1024.19 1023.73 1023.22 1022.67 1022.09 1021.49 1020.91 1020.37 1019.89 1019.50 1019.20 1019.00 1018.89 1018.87 1018.92 1019.01 1019.14 1019.29 1019.45 1019.61 1019.76 1019.90 1020.03 1020.14 1020.22 1020.28 1020.29 1020.27 1020.21 1020.11 1020.00 1019.87 1019.75 1019.67 1019.64
1026.13 1025.99 1025.83 1025.63 1025.40 1025.12 1024.80 1024.43 1023.99 1023.49 1022.93 1022.33 1021.71 1021.09 1020.50 1019.98 1019.54 1019.20 1018.97 1018.85 1018.82 1018.87 1018.98 1019.12 1019.29 1019.47 1019.64 1019.81 1019.97 1020.12 1020.27 1020.41 1020.53 1020.65 1020.73 1020.79 1020.81 1020.80 1020.77 1020.72 1020.66 1020.63 1020.63
1025.94 1025.81 1025.66 1025.48 1025.27 1025.01 1024.69 1024.30 1023.84 1023.30 1022.70 1022.06 1021.40 1020.76 1020.16 1019.64 1019.23 1018.93 1018.74 1018.67 1018.70 1018.80 1018.95 1019.13 1019.32 1019.50 1019.69 1019.86 1020.03 1020.19 1020.36 1020.54 1020.71 1020.89 1021.05 1021.19 1021.31 1021.40 1021.46 1021.49 1021.52 1021.54 1021.58
1025.78 1025.65 1025.50 1025.34 1025.15 1024.90 1024.59 1024.20 1023.72 1023.16 1022.53 1021.85 1021.16 1020.49 1019.89 1019.38 1018.97 1018.69 1018.53 1018.49 1018.55 1018.67 1018.84 1019.04 1019.24 1019.44 1019.62 1019.81 1019.98 1020.17 1020.37 1020.59 1020.82 1021.05 1021.29 1021.52 1021.73 1021.91 1022.06 1022.19 1022.29 1022.37 1022.45
1025.61 1025.48 1025.35 1025.20 1025.02 1024.79 1024.48 1024.09 1023.60 1023.02 1022.37 1021.67 1020.97 1020.29 1019.68 1019.17 1018.77 1018.50 1018.36 1018.33 1018.40 1018.53 1018.71 1018.91 1019.12 1019.32 1019.51 1019.70 1019.90 1020.11 1020.35 1020.61 1020.89 1021.19 1021.50 1021.81 1022.09 1022.35 1022.58 1022.77 1022.93 1023.06 1023.16
1025.42 1025.30 1025.18 1025.05 1024.88 1024.65 1024.34 1023.94 1023.44 1022.85 1022.19 1021.49 1020.79 1020.12 1019.52 1019.01 1018.63 1018.37 1018.24 1018.21 1018.28 1018.42 1018.59 1018.79 1018.99 1019.20 1019.40 1019.61 1019.83 1020.07 1020.34 1020.64 1020.97 1021.33 1021.69 1022.05 1022.39 1022.70 1022.97 1023.20 1023.39 1023.54 1023.66
1025.22 1025.10 1024.99 1024.86 1024.69 1024.46 1024.14 1023.73 1023.23 1022.64 1021.98 1021.29 1020.60 1019.95 1019.37 1018.89 1018.53 1018.29 1018.17 1018.15 1018.22 1018.36 1018.53 1018.72 1018.93 1019.14 1019.35 1019.57 1019.82 1020.08 1020.38 1020.72 1021.08 1021.46 1021.85 1022.23 1022.59 1022.91 1023.20 1023.43 1023.63 1023.78 1023.90
1025.00 1024.90 1024.79 1024.65 1024.48 1024.23 1023.90 1023.48 1022.97 1022.37 1021.73 1021.05 1020.39 1019.77 1019.23 1018.79 1018.46 1018.25 1018.15 1018.15 1018.23 1018.36 1018.53 1018.73 1018.93 1019.15 1019.37 1019.61 1019.87 1020.16 1020.48 1020.83 1021.20 1021.58 1021.97 1022.34 1022.68 1022.99 1023.25 1023.47 1023.64 1023.78 1023.89
1024.78 1024.69 1024.58 1024.45 1024.25 1023.98 1023.63 1023.19 1022.66 1022.07 1021.44 1020.79 1020.16 1019.59 1019.09 1018.70 1018.42 1018.25 1018.18 1018.20 1018.29 1018.44 1018.62 1018.82 1019.02 1019.25 1019.48 1019.73 1020.00 1020.29 1020.62 1020.96 1021.32 1021.69 1022.04 1022.37 1022.67 1022.93 1023.15 1023.32 1023.46 1023.57 1023.65
1024.57 1024.50 1024.40 1024.26 1024.04 1023.75 1023.37 1022.90 1022.36 1021.77 1021.15 1020.52 1019.94 1019.41 1018.98 1018.64 1018.41 1018.28 1018.25 1018.30 1018.42 1018.57 1018.76 1018.96 1019.18 1019.41 1019.65 1019.90 1020.17 1020.47 1020.78 1021.10 1021.43 1021.76 1022.06 1022.34 1022.58 1022.78 1022.94 1023.06 1023.15 1023.23 1023.29
Thickness
5421 5421 5421 5421 5421 5421 5420 5420 5421 5422 5422 5423 5424 5425 5426 5428 5429 5430 5431 5433 5434 5435 5437 5439 5440 5442 5443 5445 5447 5449 5450 5452 5454 5457 5459 5461 5464 5468 5471 5473 5475 5478 5480
5413 5412 5412 5412 5412 5413 5413 5413 5413 5414 5414 5415 5416 5416 5418 5419 5420 5421 5422 5424 5425 5426 5428 5429 5430 5432 5433 5435 5437 5439 5440 5443 5445 5446 5448 5450 5452 5456 5459 5460 5463 5465 5468
5404 5404 5404 5404 5405 5405 5405 5405 5405 5406 5406 5406 5407 5408 5409 5409 5410 5412 5413 5415 5416 5417 5418 5419 5421 5422 5424 5425 5427 5429 5431 5434 5435 5437 5438 5439 5441 5444 5446 5448 5450 5452 5454
5395 5395 5395 5396 5396 5396 5396 5397 5397 5396 5397 5397 5398 5399 5399 5400 5402 5403 5404 5405 5407 5408 5410 5411 5412 5414 5415 5417 5418 5419 5421 5423 5425 5427 5428 5429 5430 5432 5433 5435 5437 5439 5441
5386 5386 5386 5387 5387 5387 5387 5387 5387 5387 5388 5388 5389 5389 5390 5391 5393 5394 5395 5396 5397 5398 5400 5402 5403 5405 5407 5408 5410 5411 5412 5413 5414 5417 5418 5419 5420 5421 5422 5423 5424 5426 5428
5377 5377 5377 5377 5377 5377 5378 5378 5378 5378 5378 5378 5379 5380 5380 5382 5384 5386 5387 5387 5388 5389 5390 5392 5394 5395 5398 5400 5401 5402 5403 5403 5405 5406 5408 5409 5410 5410 5411 5412 5412 5414 5416
5368 5368 5367 5367 5367 5367 5368 5368 5368 5368 5368 5368 5369 5369 5370 5372 5374 5376 5377 5377 5378 5379 5381 5382 5384 5386 5388 5389 5391 5392 5393 5394 5396 5397 5398 5400 5400 5401 5401 5401 5401 5402 5403
5359 5359 5358 5357 5357 5357 5357 5358 5358 5358 5358 5358 5359 5359 5360 5362 5365 5367 5368 5368 5369 5370 5371 5373 5374 5376 5378 5380 5381 5382 5383 5385 5387 5388 5389 5391 5391 5392 5392 5392 5391 5391 5391
5351 5350 5349 5349 5348 5347 5348 5348 5348 5348 5348 5348 5349 5350 5350 5352 5355 5358 5359 5359 5360 5361 5363 5365 5366 5368 5370 5372 5372 5373 5374 5375 5377 5378 5380 5381 5382 5382 5382 5381 5380 5381 5380
5343 5342 5341 5340 5339 5338 5338 5338 5338 5338 5339 5339 5340 5340 5341 5343 5346 5349 5351 5351 5352 5354 5356 5357 5359 5361 5363 5364 5364 5364 5365 5366 5368 5369 5370 5370 5371 5371 5371 5371 5370 5370 5369
5335 5334 5333 5332 5331 5330 5330 5329 5329 5329 5330 5330 5331 5332 5333 5335 5338 5341 5343 5344 5345 5347 5349 5350 5352 5354 5356 5357 5357 5357 5358 5359 5359 5359 5360 5360 5360 5361 5360 5360 5360 5360 5359
5328 5327 5326 5325 5323 5322 5321 5320 5320 5320 5321 5322 5323 5325 5327 5329 5331 5334 5337 5339 5340 5341 5342 5344 5345 5347 5349 5350 5350 5350 5351 5350 5350 5350 5350 5351 5351 5351 5350 5351 5351 5351 5351
5322 5321 5319 5318 5316 5315 5313 5313 5312 5313 5313 5315 5317 5318 5321 5323 5325 5328 5330 5333 5335 5335 5336 5338 5340 5340 5341 5341 5342 5342 5342 5341 5342 5341 5342 5341 5341 5342 5342 5342 5342 5342 5342
5316 5315 5313 5312 5310 5308 5308 5307 5307 5307 5307 5309 5311 5313 5315 5316 5319 5321 5323 5325 5328 5329 5330 5331 5333 5333 5333 5334 5335 5334 5334 5334 5334 5334 5333 5333 5333 5334 5334 5334 5333 5334 5333
5310 5309 5308 5306 5304 5303 5303 5302 5302 5303 5304 5305 5306 5308 5309 5311 5315 5317 5318 5320 5321 5323 5324 5325 5325 5326 5326 5327 5327 5326 5326 5326 5326 5326 5325 5325 5326 5326 5326 5326 5326 5326 5325
5305 5304 5302 5301 5299 5298 5298 5298 5299 5299 5301 5302 5303 5303 5305 5308 5310 5312 5314 5315 5317 5318 5318 5319 5319 5319 5320 5320 5320 5319 5319 5319 5319 5319 5319 5319 5319 5319 5319 5319 5319 5319 5318
5298 5298 5297 5296 5295 5294 5293 5293 5294 5295 5296 5297 5298 5299 5301 5303 5304 5306 5308 5309 5310 5311 5311 5312 5313 5313 5314 5314 5313 5313 5313 5313 5313 5313 5313 5313 5312 5312 5312 5312 5313 5312 5312
5293 5292 5292 5290 5289 5289 5289 5288 5288 5289 5289 5291 5292 5294 5295 5297 5298 5300 5301 5302 5302 5303 5304 5305 5306 5307 5308 5308 5308 5308 5307 5306 5306 5307 5306 5306 5306 5306 5307 5307 5306 5306 5306
5288 5287 5286 5285 5284 5284 5284 5284 5284 5284 5284 5285 5285 5287 5289 5290 5292 5293 5294 5294 5295 5296 5298 5299 5301 5302 5302 5302 5302 5302 5302 5301 5301 5301 5301 5301 5301 5301 5301 5301 5301 5301 5302
5283 5283 5282 5280 5280 5280 5280 5279 5279 5279 5279 5279 5280 5281 5283 5284 5285 5286 5287 5288 5289 5290 5292 5294 5295 5296 5297 5297 5297 5297 5297 5297 5296 5296 5297 5296 5296 5296 5296 5296 5297 5297 5298
5278 5277 5277 5276 5275 5275 5275 5275 5274 5274 5273 5274 5274 5276 5279 5278 5279 5280 5281 5282 5284 5285 5287 5288 5290 5291 5292 5292 5292 5292 5292 5293 5293 5293 5293 5293 5292 5292 5292 5293 5293 5294 5294
5273 5272 5271 5271 5271 5271 5271 5270 5270 5269 5269 5270 5270 5272 5274 5274 5274 5275 5276 5278 5279 5281 5283 5284 5286 5286 5287 5288 5288 5288 5288 5289 5289 5289 5290 5289 5289 5289 5289 5289 5290 5291 5291
5269 5268 5267 5267 5267 5267 5267 5266 5266 5265 5265 5266 5267 5268 5269 5270 5270 5271 5273 5274 5275 5277 5279 5281 5282 5283 5283 5284 5285 5285 5286 5286 5287 5287 5287 5287 5287 5287 5287 5287 5287 5287 5288
5264 5263 5263 5263 5262 5262 5262 5262 5261 5262 5262 5263 5263 5264 5265 5266 5267 5268 5269 5271 5272 5274 5276 5277 5278 5280 5281 5282 5283 5284 5284 5285 5285 5286 5286 5285 5285 5284 5284 5284 5285 5285 5286
5261 5260 5259 5258 5258 5258 5258 5258 5258 5258 5259 5260 5260 5261 5262 5263 5264 5266 5267 5268 5269 5271 5273 5274 5275 5277 5278 5280 5281 5282 5282 5283 5284 5284 5283 5283 5283 5282 5282 5282 5283 5283 5283
5258 5256 5255 5255 5255 5255 5255 5255 5255 5256 5256 5257 5258 5259 5260 5261 5262 5263 5264 5266 5267 5268 5270 5271 5273 5274 5276 5277 5279 5280 5280 5281 5282 5282 5282 5281 5281 5280 5280 5280 5281 5281 5281